When you browse on this site, cookies collect data to enhance your experience and personalize the content and advertising you see.
Visit our Privacy Policy to learn more. By continuing to use the site, you agree to this use of cookies and data.
  • In Sweden
  • List of Countries
  • For 7 days
  • Water Temperature
  • Weather Map
  • Weather Widgets
  • user-avatar
    Login

    Hourly Weather Manaus

    Today, 28 March, Saturday

    Time Temperature Precipitation Wind Pressure Humidity
    00:00 +26°C° 0.1 mm 1 mps 752 mmHg 94%
    01:00 +26°C° 0.1 mm 1 mps 751 mmHg 95%
    02:00 +26°C° 0 mm 1 mps 751 mmHg 95%
    03:00 +26°C° 0 mm 1 mps 751 mmHg 95%
    04:00 +26°C° 0 mm 1 mps 751 mmHg 94%
    05:00 +26°C° 0 mm 1 mps 751 mmHg 94%
    06:00 +26°C° 0 mm 1 mps 752 mmHg 93%
    07:00 +27°C° 0 mm 1 mps 752 mmHg 92%
    08:00 +27°C° 0 mm 1 mps 753 mmHg 90%
    09:00 +29°C° 0 mm 1 mps 753 mmHg 81%
    10:00 +31°C° 0 mm 1 mps 753 mmHg 72%
    11:00 +34°C° 0 mm 2 mps 753 mmHg 64%
    12:00 +35°C° 0.4 mm 2 mps 752 mmHg 62%
    13:00 +34°C° 0.4 mm 1 mps 751 mmHg 61%
    14:00 +35°C° 0.4 mm 1 mps 750 mmHg 60%
    15:00 +34°C° 0.7 mm 1 mps 750 mmHg 68%
    16:00 +32°C° 0.7 mm 1 mps 750 mmHg 76%
    17:00 +31°C° 0.7 mm 1 mps 749 mmHg 85%
    18:00 +30°C° 0.3 mm 1 mps 750 mmHg 87%
    19:00 +29°C° 0.3 mm 1 mps 751 mmHg 90%
    20:00 +27°C° 0.3 mm 1 mps 752 mmHg 92%
    21:00 +27°C° 0.1 mm 1 mps 752 mmHg 92%
    22:00 +27°C° 0.1 mm 1 mps 752 mmHg 92%
    23:00 +27°C° 0.1 mm 1 mps 753 mmHg 92%

    Tomorrow, 29 March, Sunday

    Time Temperature Precipitation Wind Pressure Humidity
    00:00 +27°C° 0 mm 1 mps 752 mmHg 92%
    01:00 +27°C° 0 mm 1 mps 752 mmHg 92%
    02:00 +27°C° 0 mm 1 mps 752 mmHg 92%
    03:00 +27°C° 0 mm 1 mps 752 mmHg 93%
    04:00 +26°C° 0 mm 1 mps 752 mmHg 93%
    05:00 +26°C° 0 mm 1 mps 752 mmHg 93%
    06:00 +27°C° 0.4 mm 1 mps 753 mmHg 92%
    07:00 +27°C° 0.4 mm 1 mps 753 mmHg 90%
    08:00 +28°C° 0.4 mm 1 mps 754 mmHg 88%
    09:00 +29°C° 0.8 mm 2 mps 754 mmHg 82%
    10:00 +31°C° 0.8 mm 2 mps 754 mmHg 76%
    11:00 +33°C° 0.8 mm 3 mps 754 mmHg 70%
    12:00 +34°C° 0.5 mm 2 mps 753 mmHg 70%
    13:00 +34°C° 0.5 mm 2 mps 751 mmHg 70%
    14:00 +35°C° 0.5 mm 2 mps 750 mmHg 70%
    15:00 +34°C° 0.2 mm 2 mps 750 mmHg 72%
    16:00 +33°C° 0.2 mm 1 mps 750 mmHg 74%
    17:00 +32°C° 0.2 mm 1 mps 750 mmHg 76%
    18:00 +31°C° 0.2 mm 1 mps 751 mmHg 80%
    19:00 +30°C° 0.2 mm 1 mps 751 mmHg 84%
    20:00 +28°C° 0.2 mm 1 mps 752 mmHg 89%
    21:00 +28°C° 1.2 mm 1 mps 752 mmHg 91%
    22:00 +28°C° 1.2 mm 1 mps 753 mmHg 93%
    23:00 +27°C° 1.2 mm 1 mps 753 mmHg 95%

    Day after tomorrow, 30 March, Monday

    Time Temperature Precipitation Wind Pressure Humidity
    00:00 +27°C° 3.3 mm 1 mps 753 mmHg 96%
    01:00 +27°C° 3.3 mm 1 mps 752 mmHg 96%
    02:00 +26°C° 3.3 mm 1 mps 751 mmHg 97%
    03:00 +26°C° 3.2 mm 1 mps 752 mmHg 97%
    04:00 +26°C° 3.2 mm 2 mps 752 mmHg 97%
    05:00 +26°C° 3.2 mm 2 mps 752 mmHg 96%
    06:00 +26°C° 1.1 mm 2 mps 753 mmHg 96%
    07:00 +26°C° 1.1 mm 1 mps 753 mmHg 96%
    08:00 +26°C° 1.1 mm 1 mps 754 mmHg 96%
    09:00 +26°C° 4.6 mm 1 mps 754 mmHg 97%
    10:00 +26°C° 4.6 mm 2 mps 754 mmHg 97%
    11:00 +25°C° 4.6 mm 3 mps 755 mmHg 97%
    12:00 +26°C° 1.4 mm 2 mps 754 mmHg 96%
    13:00 +26°C° 1.4 mm 1 mps 752 mmHg 96%
    14:00 +26°C° 1.4 mm 1 mps 751 mmHg 95%
    15:00 +25°C° 0 mm 0 mps 751 mmHg 93%
    16:00 +25°C° 0 mm 0 mps 751 mmHg 92%
    17:00 +26°C° 0 mm 0 mps 750 mmHg 90%
    18:00 +25°C° 0 mm 0 mps 751 mmHg 92%
    19:00 +24°C° 0 mm 0 mps 751 mmHg 94%
    20:00 +24°C° 0 mm 0 mps 752 mmHg 96%
    21:00 +24°C° 0 mm 0 mps 752 mmHg 96%
    22:00 +24°C° 0 mm 0 mps 752 mmHg 97%
    23:00 +23°C° 0 mm 0 mps 753 mmHg 97%

    31 March, Tuesday

    Time Temperature Precipitation Wind Pressure Humidity
    00:00 +23°C° 0.3 mm 0 mps 752 mmHg 97%
    01:00 +23°C° 0.3 mm 0 mps 752 mmHg 97%
    02:00 +25°C° 0.3 mm 1 mps 751 mmHg 97%
    03:00 +25°C° 0.2 mm 1 mps 751 mmHg 97%
    04:00 +25°C° 0.2 mm 1 mps 751 mmHg 98%
    05:00 +25°C° 0.2 mm 1 mps 751 mmHg 98%
    06:00 +26°C° 0.3 mm 1 mps 752 mmHg 96%
    07:00 +27°C° 0.3 mm 1 mps 753 mmHg 95%
    08:00 +27°C° 0.3 mm 1 mps 753 mmHg 93%
    09:00 +29°C° 1.5 mm 1 mps 753 mmHg 90%
    10:00 +28°C° 1.5 mm 0 mps 753 mmHg 87%
    11:00 +29°C° 1.5 mm 0 mps 752 mmHg 83%
    12:00 +31°C° 1.5 mm 1 mps 752 mmHg 82%
    13:00 +31°C° 1.5 mm 1 mps 751 mmHg 81%
    14:00 +32°C° 1.5 mm 1 mps 750 mmHg 79%
    15:00 +31°C° 0.8 mm 1 mps 750 mmHg 81%
    16:00 +31°C° 0.8 mm 1 mps 750 mmHg 83%
    17:00 +31°C° 0.8 mm 1 mps 750 mmHg 85%
    18:00 +30°C° 0.2 mm 1 mps 750 mmHg 87%
    19:00 +26°C° 0.2 mm 0 mps 751 mmHg 89%
    20:00 +25°C° 0.2 mm 0 mps 752 mmHg 92%
    21:00 +25°C° 0.2 mm 0 mps 752 mmHg 92%
    22:00 +25°C° 0.2 mm 0 mps 752 mmHg 92%
    23:00 +25°C° 0.2 mm 0 mps 752 mmHg 93%

    1 April, Wednesday

    Time Temperature Precipitation Wind Pressure Humidity
    00:00 +25°C° 0.2 mm 0 mps 752 mmHg 93%
    01:00 +24°C° 0.2 mm 0 mps 751 mmHg 94%
    02:00 +24°C° 0.2 mm 0 mps 751 mmHg 94%
    03:00 +24°C° 1 mm 0 mps 751 mmHg 95%
    04:00 +24°C° 1 mm 0 mps 751 mmHg 96%
    05:00 +24°C° 1 mm 0 mps 751 mmHg 96%
    06:00 +26°C° 0.7 mm 1 mps 752 mmHg 96%
    07:00 +27°C° 0.7 mm 1 mps 752 mmHg 95%
    08:00 +27°C° 0.7 mm 1 mps 753 mmHg 95%
    09:00 +28°C° 1.9 mm 1 mps 753 mmHg 92%
    10:00 +29°C° 1.9 mm 1 mps 753 mmHg 89%
    11:00 +30°C° 1.9 mm 1 mps 753 mmHg 87%
    12:00 +30°C° 2.7 mm 1 mps 752 mmHg 88%
    13:00 +30°C° 2.7 mm 1 mps 752 mmHg 89%
    14:00 +30°C° 2.7 mm 1 mps 751 mmHg 89%
    15:00 +29°C° 1.8 mm 1 mps 751 mmHg 91%
    16:00 +28°C° 1.8 mm 1 mps 751 mmHg 93%
    17:00 +27°C° 1.8 mm 1 mps 751 mmHg 95%
    18:00 +27°C° 1 mm 1 mps 752 mmHg 96%
    19:00 +26°C° 1 mm 1 mps 752 mmHg 97%
    20:00 +26°C° 1 mm 1 mps 753 mmHg 98%
    21:00 +26°C° 0.5 mm 1 mps 753 mmHg 98%
    22:00 +26°C° 0.5 mm 1 mps 753 mmHg 98%
    23:00 +26°C° 0.5 mm 1 mps 754 mmHg 98%

    2 April, Thursday

    Time Temperature Precipitation Wind Pressure Humidity
    00:00 +26°C° 0.1 mm 1 mps 753 mmHg 98%
    01:00 +26°C° 0.1 mm 1 mps 753 mmHg 98%
    02:00 +26°C° 0.1 mm 1 mps 753 mmHg 98%
    03:00 +26°C° 0 mm 1 mps 753 mmHg 98%
    04:00 +25°C° 0 mm 1 mps 753 mmHg 98%
    05:00 +25°C° 0 mm 1 mps 753 mmHg 98%
    06:00 +26°C° 0.4 mm 1 mps 753 mmHg 97%
    07:00 +27°C° 0.4 mm 1 mps 754 mmHg 96%
    08:00 +27°C° 0.4 mm 1 mps 755 mmHg 95%
    09:00 +28°C° 1.5 mm 1 mps 755 mmHg 93%
    10:00 +29°C° 1.5 mm 1 mps 755 mmHg 91%
    11:00 +30°C° 1.5 mm 1 mps 755 mmHg 88%
    12:00 +28°C° 2 mm 1 mps 755 mmHg 91%
    13:00 +27°C° 2 mm 1 mps 754 mmHg 94%
    14:00 +26°C° 2 mm 2 mps 753 mmHg 97%
    15:00 +26°C° 0.1 mm 1 mps 753 mmHg 96%
    16:00 +26°C° 0.1 mm 1 mps 753 mmHg 96%
    17:00 +26°C° 0.1 mm 1 mps 752 mmHg 95%
    18:00 +26°C° 0 mm 1 mps 753 mmHg 96%
    19:00 +24°C° 0 mm 0 mps 754 mmHg 96%
    20:00 +24°C° 0 mm 0 mps 754 mmHg 96%
    21:00 +23°C° 0 mm 0 mps 754 mmHg 97%
    22:00 +23°C° 0 mm 0 mps 755 mmHg 97%
    23:00 +23°C° 0 mm 0 mps 755 mmHg 97%
    Show more